This is the latest recevied weather packets stored in our database for station/object KC3WWU. If no packets are shown the sender has not sent any weather packets the latest 10 day(s).
| Time | Temp. | Humidity | Pressure | Rain* | Wind** | Luminosity | Snow |
|---|---|---|---|---|---|---|---|
| 1777513778 | 11.11° C | 99% | 1005.9 hPa | 3.05 mm | - | 0 W/m² | - |
| 1777513475 | 11.67° C | 99% | 1006 hPa | 1.78 mm | - | 0 W/m² | - |
| 1777513172 | 11.67° C | 99% | 1005.8 hPa | 10.67 mm | - | 0 W/m² | - |
| 1777512867 | 11.67° C | 99% | 1005.7 hPa | 10.67 mm | - | 0 W/m² | - |
| 1777512564 | 11.67° C | 99% | 1005.5 hPa | 3.05 mm | - | 0 W/m² | - |
| 1777512261 | 11.67° C | 99% | 1005.6 hPa | 0 mm | - | 0 W/m² | - |
| 1777511958 | 11.67° C | 99% | 1005.5 hPa | 0 mm | - | 0 W/m² | - |
| 1777511656 | 11.67° C | 99% | 1005.4 hPa | 0 mm | - | 0 W/m² | - |
| 1777511354 | 11.67° C | 99% | 1005.3 hPa | 0 mm | - | 0 W/m² | - |
| 1777511054 | 11.67° C | 99% | 1005.4 hPa | 0 mm | - | 0 W/m² | - |
| 1777510750 | 11.67° C | 99% | 1005.3 hPa | 0 mm | - | 0 W/m² | - |
| 1777510448 | 11.11° C | 99% | 1005.3 hPa | 0 mm | - | 0 W/m² | - |
| 1777510143 | 11.67° C | 99% | 1005 hPa | 0 mm | - | 0 W/m² | - |
| 1777509840 | 11.67° C | 99% | 1004.7 hPa | 0 mm | - | 0 W/m² | - |
| 1777509535 | 11.67° C | 99% | 1005 hPa | 0 mm | - | 0 W/m² | - |
| 1777509233 | 11.67° C | 99% | 1005.3 hPa | 0 mm | - | 0 W/m² | - |
| 1777508930 | 11.67° C | 99% | 1005.3 hPa | 0 mm | - | 0 W/m² | - |
| 1777508626 | 11.67° C | 99% | 1005.1 hPa | 0 mm | - | 0 W/m² | - |
| 1777508324 | 12.22° C | 99% | 1004.8 hPa | 0 mm | - | 0 W/m² | - |
| 1777508021 | 12.22° C | 99% | 1005.3 hPa | 0 mm | - | 1 W/m² | - |
| 1777507718 | 12.22° C | 99% | 1005 hPa | 0 mm | - | 1 W/m² | - |
| 1777507415 | 12.22° C | 99% | 1004.5 hPa | 1.27 mm | - | 3 W/m² | - |
| 1777507112 | 12.22° C | 99% | 1004.9 hPa | 1.27 mm | - | 5 W/m² | - |
| 1777506810 | 12.22° C | 99% | 1005 hPa | 0 mm | - | 4 W/m² | - |
| 1777506506 | 12.78° C | 99% | 1005 hPa | 0 mm | - | 2 W/m² | - |
* Rain latest hour (hover to see other rain measurements)
** Current wind speed in m/s (hover to see current wind gust speed)